Starlink 11684

operational
NORAD ID: 64240 Int'l Des: 2025-119 Owner: SPXS Country: US Constellation: starlink
LEOCIRCULAR

Über Starlink 11684

Beschreibung wird geladen...

Live-Position

3D-Globus wird geladen...

Nächste Überflüge

Höhenverlauf

Altitude vs Time

uPlot chart will show altitude changes over time

Zweizeiliger Elementsatz

1 64240U 25119H 25260.17413541 .00155092 00000-0 11880-2 0 9997
2 64240 43.0007 175.1508 0002022 260.5600 99.5039 15.70875351 17953
Epoch: 17. Sept. 2025 • Age: 46 hours

Aktueller Status

Höhe 358.6 km
Geschwindigkeit 7.70 km/s
Subsatellitenpunkt 41.08°N, 119.04°W
Startdatum 3. Juni 2025
Alter 0.2 years
Typ internet

Technische Details

Klassifizierung Payload
Masse 960.00 kg
Trockenmasse 910.00 kg
Gesamtmasse 960.00 kg
Länge 0.30 m
Durchmesser 4.10 m
Spannweite 29.00 m
Form Box + pan
Hersteller SPXS
Bus-Typ Starlink V2MD
Phasenstatus In Orbit
Besitzer/Staat SPXS/US

Große Konstellationen

Loading constellations...